CZ-3B DEB, 40186

Orbit data source: Space-Track

CZ-3B DEB, 40186 is space debris in HEO originally from a launch on Mon, 19 Dec 2011 UTC launched from the Xichang Space Center, China (XSC). Debris objects in space refer to the collection of defunct objects orbiting the Earth. Examples of debris include non-operational satellites, rocket bodies, and fragments generated from explosions, collisions, or faulty payload assembly.

Loading next visibility...
Identifier
40186, 2011-077K
Orbit
HEO
Country
Flag of CNCN / PRC
Related business
Manufacturer
CALT
Mission
Spacecraft
Bus & Motor
Unknown
Mass
Unknown
Launch date (UTC)
2011-12-19 (14 years ago)
Launch vehicle
Unknown
Launch site
Xichang Space Center, China (XSC)
Object type
Payload
Rocket body
Debris
Shape & HBR
Unknown shape, 0.2 m
Radar Cross Section
Medium (>0.1 m² and <1 m²)

Expand to show TLE details & history
Last TLE update: 3 days ago

TLE from 3 days ago
0 CZ-3B DEB
1 40186U 11077K   25287.86425707  .00000051  00000-0  00000-0 0  9994
2 40186  25.2090 145.8236 7324761 150.4345 355.1184  1.88728931 94489
Epoch: 2025-10-14T20:44Z
TLE epoch observation values (Epoch: 2025-10-14T20:44:31.810Z)
Latitude
24.11512°
Longitude
-80.17194°
Altitude
2,010.791 km
Speed
8.98 km/s
True Right ascension
16h 58m 25s
True Declination
24° 00' 23"
Sunlit
Object was in daylight at epoch
Visualization orbit readout
Latitude
Unknown
Longitude
Unknown
Altitude
Unknown
Speed
Unknown
Apparent Right ascension
Unknown
Apparent Declination
Unknown
Sunlit
N/A
Visualization observer readout
Local Sidereal Time
01:11:10
Azimuth
Unknown
Elevation
Unknown
Doppler factor
Unknown
Orbital elements
Apogee altitude
41,547.517 km
Perigee altitude
1,022.403 km
Semi-major axis
27,663.097 km
Eccentricity
0.73248
Inclination
25.209°
RAAN
145.8236°
Arg. of periapsis
150.4345°
True anomaly
317.20966°
Mean anomaly
355.1184°
Eccentric anomaly
342.49483°
Mean motion
0.47173 °/min
Orbital period
763.15 mins
BSTAR
0
Loading maneuver chart data...
Computing Atmospheric mass density...
Loading historical data...
Loading historical data...
Loading historical data...
Loading historical data...
Loading historical data...
Loading historical data...
Loading historical data...

Documentation

Showing up to 5 results
|